{"data":{"norad_id":67111,"epoch":"2026-09-20T09:08:51.088704Z","epoch_age_seconds":88475,"freshness":"FRESH","line1":"1 67111U 25299K   26263.38114686  .00011519  00000+0  42731-3 0  9995","line2":"2 67111  42.9972 149.3122 0000859 273.4686  86.6068 15.27590901 42897","mean_motion":15.27590901,"eccentricity":8.59e-5,"inclination_deg":42.9972,"raan_deg":149.3122,"arg_perigee_deg":273.4686,"mean_anomaly_deg":86.6068,"bstar":0.00042731,"rev_number":4289,"period_min":94.266076019263,"perigee_km":482.42708163639,"apogee_km":483.60582779991,"semimajor_km":6861.1534547181,"source":"CELESTRAK","updated_at":"2026-09-21T09:00:36.105465Z"}}